[[{"header":{"parameterUnit":"m.s-1","parameterCategory":1,"la1":30.2991,"la2":30.254,"lo1":-89.0895,"lo2":-89.0444,"dy":0.0017,"dx":0.0017,"nx":28,"ny":28,"refTime":"2025-04-04T21:00:00:Z","depth":0,"parameterNumber":2,"parameterNumberName":"U-component_of_WINDS"},"data":[0,0,0,0,0,0,0,0,0,0,0,0,0,0,0,0,0,0,0,0,0,0,0,0,0,0,0,0,0,0,0,0,0,0,0,0,0,0,0,0,0,0,0,0,0,0,0,0,0,0,0,0,0,0,0,0,0,0,-0.2055,-0.2057,0,-0.2164,-0.2165,-0.2166,-0.2229,-0.223,-0.223,-0.223,-0.2345,-0.2347,-0.235,0,0,0,0,0,0,0,0,0,0,0,0,0,-0.1907,-0.191,-0.2055,-0.2057,-0.2058,-0.2163,-0.2165,-0.2166,-0.2229,-0.223,-0.223,-0.223,-0.2344,-0.2347,-0.235,0,0,0,0,0,0,0,0,0,0,0,0,0,-0.1989,-0.1911,-0.2055,-0.2102,-0.2107,-0.2163,-0.2165,-0.2167,-0.2229,-0.223,-0.223,-0.223,-0.2343,-0.2347,-0.2351,-0.2369,0,0,-0.2364,-0.2366,0,0,0,0,0,0,0,0,-0.1985,-0.1995,-0.2094,-0.2099,-0.2105,-0.2183,-0.2155,-0.2235,-0.2229,-0.2183,-0.223,-0.2231,-0.2291,-0.2299,-0.2319,-0.2375,-0.238,-0.2364,-0.2367,-0.2369,-0.237,0,0,0,0,0,0,0,-0.1979,-0.199,-0.2098,-0.2095,-0.2102,-0.2119,-0.2131,-0.217,-0.2234,-0.2187,-0.2192,-0.2204,-0.2294,-0.2315,-0.2322,-0.2381,-0.2364,-0.2368,-0.237,-0.2372,-0.2459,-0.2459,0,0,0,0,0,0,-0.1965,-0.1985,-0.2095,-0.2102,-0.2044,-0.2121,-0.2135,-0.2158,-0.2233,-0.2245,-0.2203,-0.2206,-0.2307,-0.2317,-0.2326,-0.2354,-0.2368,-0.2372,-0.2375,-0.2459,-0.2459,-0.2459,0,0,0,0,0,0,-0.1962,-0.1974,-0.2091,-0.2045,-0.2061,-0.2124,-0.2149,-0.216,-0.2181,-0.2246,-0.2258,-0.2213,-0.2308,-0.232,-0.2358,-0.2359,-0.2374,-0.2378,-0.246,-0.2459,-0.2459,-0.2408,0,0,0,0,0,0,-0.1957,-0.1973,-0.1979,-0.2044,-0.2063,-0.2119,-0.2149,-0.2162,-0.2187,-0.2192,-0.2257,-0.2269,-0.2309,-0.2352,-0.2362,-0.2365,-0.2381,-0.246,-0.2459,-0.2459,-0.241,-0.2406,-0.2402,0,0,0,0,0,-0.1952,-0.1961,-0.1979,-0.1992,-0.2072,-0.2119,-0.213,-0.2175,-0.2187,-0.2195,-0.2237,-0.2267,-0.2357,-0.2355,-0.2368,-0.2371,-0.246,-0.246,-0.2459,-0.2412,-0.2407,-0.2403,0,0,0,0,0,0,-0.1896,-0.1971,-0.1991,-0.2022,-0.2063,-0.2129,-0.2141,-0.2169,-0.2209,-0.2212,-0.2268,-0.2282,-0.2314,-0.2347,-0.2343,-0.2394,-0.2412,-0.2414,-0.2371,-0.2367,-0.2364,-0.2355,-0.2385,0,0,0,0,0,-0.1887,-0.1917,-0.1981,-0.2002,-0.2022,-0.2078,-0.21,-0.2131,-0.2177,-0.2195,-0.224,-0.2284,-0.2323,-0.2347,-0.2386,-0.2415,-0.2431,-0.2424,-0.242,-0.2417,-0.2418,-0.2437,-0.2435,-0.2457,-0.2457,-0.2457,0,0,-0.1869,-0.1914,-0.193,-0.1992,-0.2028,-0.2059,-0.2092,-0.2124,-0.2148,-0.22,-0.2238,-0.2273,-0.2326,-0.236,-0.2377,-0.2388,-0.2415,-0.2416,-0.2413,-0.2416,-0.2436,-0.2434,-0.2432,-0.2457,-0.2457,-0.2457,0,0,-0.1853,-0.1889,-0.1911,-0.1946,-0.1999,-0.2036,-0.2041,-0.2103,-0.2128,-0.2167,-0.2207,-0.2237,-0.2302,-0.2338,-0.2365,-0.2363,-0.2392,-0.2374,-0.2355,-0.2373,-0.2371,-0.237,-0.237,-0.2369,-0.2375,-0.2375,-0.2375,0,-0.1825,-0.1872,-0.1919,-0.1948,-0.1975,-0.2023,-0.2046,-0.2078,-0.2142,-0.216,-0.2171,-0.2253,-0.2293,-0.2336,-0.2335,-0.2355,-0.2364,-0.2367,-0.2367,-0.2367,-0.2366,-0.2367,-0.2367,-0.2373,-0.2373,-0.2373,-0.2373,0,-0.1835,-0.1867,-0.1879,-0.1938,-0.1966,-0.1992,-0.2044,-0.2068,-0.2096,-0.2133,-0.2172,-0.2221,-0.2271,-0.2284,-0.2313,-0.2331,-0.2336,-0.2356,-0.2376,-0.2361,-0.2362,-0.2363,-0.2369,-0.237,-0.2371,-0.2371,0,0,-0.1787,-0.1871,-0.1875,-0.1902,-0.1965,-0.1992,-0.202,-0.2068,-0.2087,-0.213,-0.2156,-0.221,-0.2229,-0.226,-0.2293,-0.2309,-0.2305,-0.2328,-0.233,-0.2322,-0.233,-0.2314,-0.2314,-0.2324,-0.2325,-0.2325,-0.2325,0,-0.178,-0.1833,-0.1876,-0.1913,-0.1944,-0.199,-0.2015,-0.2057,-0.2092,-0.2125,-0.2164,-0.2201,-0.2223,-0.2242,-0.2259,-0.2301,-0.2307,-0.2302,-0.2351,-0.2352,-0.2336,-0.2315,-0.2299,-0.2297,-0.2326,-0.2326,-0.2326,0,-0.178,-0.1819,-0.1859,-0.1918,-0.1933,-0.1955,-0.2002,-0.2032,-0.2081,-0.2106,-0.214,-0.2175,-0.2209,-0.2224,-0.2273,-0.2268,-0.2291,-0.2315,-0.2316,-0.2323,-0.2339,-0.2321,-0.2297,-0.2297,-0.2328,-0.2328,-0.2328,0,-0.1741,-0.1804,-0.1837,-0.1859,-0.1929,-0.1943,-0.1974,-0.2023,-0.2049,-0.2091,-0.2108,-0.2154,-0.2179,-0.2214,-0.2261,-0.2268,-0.2305,-0.2324,-0.2328,-0.2326,-0.2334,-0.2333,-0.2313,-0.2347,-0.2347,-0.2347,-0.2347,0,-0.173,-0.1752,-0.182,-0.184,-0.1867,-0.1917,-0.1944,-0.1978,-0.2021,-0.205,-0.2092,-0.2118,-0.2178,-0.2212,-0.2249,-0.2284,-0.2295,-0.2317,-0.2326,-0.2313,-0.231,-0.2329,-0.2331,-0.2347,-0.2347,-0.2347,-0.2347,0,-0.1692,-0.1738,-0.1776,-0.1839,-0.1855,-0.1873,-0.1928,-0.1949,-0.1986,-0.2022,-0.2033,-0.2092,-0.2133,-0.2183,-0.2242,-0.2267,-0.2299,-0.2313,-0.2282,-0.2288,-0.2288,-0.2288,-0.228,-0.2283,-0.2314,-0.2313,-0.2313,0,-0.1681,-0.17,-0.1765,-0.1786,-0.1814,-0.1848,-0.1875,-0.1925,-0.1951,-0.2009,-0.2024,-0.2069,-0.2107,-0.2172,-0.2221,-0.2266,-0.2282,-0.2276,-0.2289,-0.2276,-0.2283,-0.2282,-0.2284,-0.2273,-0.2273,-0.2272,-0.2272,0,-0.1659,-0.1681,-0.1717,-0.176,-0.179,-0.1828,-0.1867,-0.1883,-0.1941,-0.1969,-0.2011,-0.2041,-0.21,-0.2145,-0.2196,-0.2229,-0.2261,-0.2267,-0.227,-0.2257,-0.2239,-0.225,-0.2273,-0.2267,-0.2268,-0.2268,-0.2268,-0.2268,-0.1635,-0.1654,-0.1702,-0.1741,-0.1776,-0.1811,-0.1835,-0.1874,-0.191,-0.1962,-0.1989,-0.2032,-0.2081,-0.2153,-0.2185,-0.222,-0.2231,-0.2235,-0.2237,-0.2237,-0.2233,-0.2232,-0.2229,-0.2229,-0.223,-0.223,-0.223,0,-0.1616,-0.1649,-0.1684,-0.1737,-0.1767,-0.1793,-0.1838,-0.1862,-0.1898,-0.1941,-0.1978,-0.2027,-0.2071,-0.2123,-0.217,-0.2188,-0.2203,-0.2199,-0.2198,-0.2205,-0.222,-0.2213,-0.2185,-0.2185,-0.2185,-0.2185,-0.2185,-0.2185,-0.1609,-0.1642,-0.167,-0.1721,-0.1755,-0.1795,-0.1819,-0.1852,-0.1887,-0.194,-0.1975,-0.2008,-0.2055,-0.2106,-0.2148,-0.2162,-0.2178,-0.2169,-0.2187,-0.22,-0.2204,-0.2208,-0.2201,-0.2171,-0.2171,-0.217,-0.2169,-0.2169]},{"header":{"parameterUnit":"m.s-1","parameterCategory":1,"la1":30.2991,"la2":30.254,"lo1":-89.0895,"lo2":-89.0444,"dy":0.0017,"dx":0.0017,"nx":28,"ny":28,"refTime":"2025-04-04T21:00:00:Z","depth":0,"parameterNumber":3,"parameterNumberName":"V-component_of_WINDS"},"data":[0,0,0,0,0,0,0,0,0,0,0,0,0,0,0,0,0,0,0,0,0,0,0,0,0,0,0,0,0,0,0,0,0,0,0,0,0,0,0,0,0,0,0,0,0,0,0,0,0,0,0,0,0,0,0,0,0,0,7.6599,7.66,0,7.6652,7.6653,7.6653,7.658,7.6577,7.6575,7.6572,7.6623,7.6626,7.663,0,0,0,0,0,0,0,0,0,0,0,0,0,7.6434,7.6437,7.6599,7.66,7.6601,7.6652,7.6653,7.6653,7.658,7.6577,7.6574,7.6571,7.6621,7.6626,7.663,0,0,0,0,0,0,0,0,0,0,0,0,0,7.6498,7.6438,7.6599,7.6571,7.6569,7.6652,7.6653,7.6653,7.6581,7.6577,7.6573,7.657,7.662,7.6625,7.6631,7.6744,0,0,7.6648,7.6651,0,0,0,0,0,0,0,0,7.6494,7.6504,7.6574,7.6573,7.6571,7.6605,7.6612,7.6684,7.6582,7.6576,7.6572,7.6568,7.662,7.6625,7.6643,7.6746,7.6748,7.6649,7.6652,7.6654,7.6656,0,0,0,0,0,0,0,7.649,7.6501,7.662,7.6575,7.6573,7.6554,7.6559,7.6626,7.6619,7.6576,7.6571,7.6579,7.6618,7.6638,7.6644,7.6749,7.6648,7.6654,7.6657,7.6659,7.6949,7.6953,0,0,0,0,0,0,7.6489,7.6498,7.6618,7.6622,7.6522,7.6561,7.6566,7.6598,7.6618,7.6618,7.6582,7.6575,7.6631,7.6638,7.6646,7.6781,7.6654,7.666,7.6663,7.6945,7.695,7.6954,0,0,0,0,0,0,7.6486,7.6501,7.6616,7.6559,7.6572,7.6568,7.6604,7.6601,7.6621,7.6622,7.6621,7.6604,7.6628,7.6638,7.6721,7.6781,7.6662,7.6667,7.6939,7.6946,7.6952,7.7051,0,0,0,0,0,0,7.6482,7.65,7.6543,7.656,7.6575,7.6691,7.6608,7.6605,7.6632,7.6623,7.6643,7.6642,7.6625,7.6713,7.6726,7.6787,7.6672,7.6934,7.6942,7.695,7.7042,7.706,7.7075,0,0,0,0,0,7.6476,7.6567,7.6546,7.6561,7.6629,7.6695,7.6703,7.6683,7.6637,7.668,7.6681,7.6641,7.6772,7.6722,7.6736,7.68,7.693,7.694,7.6949,7.7035,7.7056,7.7075,0,0,0,0,0,0,7.6555,7.6569,7.6545,7.6645,7.667,7.6682,7.6736,7.6707,7.6744,7.6734,7.6707,7.6712,7.6801,7.6808,7.6752,7.6911,7.6843,7.6857,7.6903,7.6924,7.694,7.6937,7.6676,0,0,0,0,0,7.6585,7.6638,7.6646,7.6734,7.6748,7.674,7.6768,7.6751,7.6775,7.6784,7.6791,7.6815,7.6862,7.6893,7.6936,7.7043,7.7047,7.7094,7.711,7.7124,7.7135,7.7195,7.7216,7.6986,7.6986,7.6986,0,0,7.6646,7.666,7.6695,7.675,7.6767,7.6823,7.6749,7.681,7.6851,7.6793,7.6873,7.6879,7.6904,7.7,7.7042,7.7009,7.72,7.7136,7.7147,7.7151,7.7207,7.7229,7.7248,7.6993,7.6992,7.6991,0,0,7.6785,7.6801,7.6876,7.6896,7.6924,7.6918,7.6937,7.6955,7.6957,7.7037,7.6996,7.7043,7.7124,7.7144,7.7165,7.7315,7.7281,7.733,7.7416,7.7474,7.7492,7.7508,7.7564,7.7584,7.7342,7.7342,7.7342,0,7.6857,7.694,7.6918,7.6984,7.701,7.6962,7.7039,7.7058,7.7098,7.7117,7.7079,7.7181,7.7194,7.7296,7.7333,7.735,7.7371,7.7328,7.7492,7.7508,7.7522,7.7575,7.7595,7.7348,7.7347,7.7346,7.7346,0,7.7028,7.7086,7.7143,7.7186,7.7218,7.7289,7.7278,7.7313,7.7294,7.7293,7.7376,7.7391,7.7437,7.7459,7.744,7.7559,7.7538,7.7496,7.7428,7.755,7.7599,7.7619,7.7356,7.7354,7.7352,7.7351,0,0,7.7217,7.7249,7.7271,7.7291,7.7319,7.7363,7.7432,7.7479,7.7511,7.754,7.7597,7.7668,7.7631,7.7655,7.7637,7.7689,7.781,7.7641,7.7641,7.7673,7.7944,7.7976,7.7999,7.7787,7.779,7.7793,7.7942,0,7.7358,7.7479,7.7463,7.7579,7.7633,7.759,7.765,7.7673,7.7675,7.7721,7.7721,7.7773,7.7719,7.7733,7.7782,7.7785,7.7864,7.7773,7.784,7.7843,7.7837,7.8025,7.8058,7.8198,7.7961,7.7964,7.7967,0,7.7538,7.7577,7.7699,7.7722,7.7744,7.7798,7.7842,7.7886,7.7912,7.791,7.7938,7.7913,7.7982,7.7912,7.8008,7.7947,7.7974,7.7979,7.7984,7.799,7.7913,7.8037,7.8242,7.8264,7.7996,7.7994,7.7992,0,7.7667,7.7749,7.7834,7.7852,7.7879,7.7919,7.7932,7.7955,7.7985,7.8022,7.8042,7.8086,7.8111,7.8146,7.8133,7.8083,7.8232,7.8161,7.8233,7.8233,7.8266,7.8264,7.8479,7.8282,7.8281,7.8281,7.828,0,7.7827,7.7903,7.7893,7.7944,7.803,7.801,7.8095,7.8102,7.8124,7.8176,7.814,7.819,7.817,7.8219,7.8209,7.8291,7.8302,7.8302,7.8299,7.8306,7.8306,7.8324,7.8314,7.8286,7.8285,7.8284,7.8283,0,7.7985,7.798,7.807,7.809,7.8097,7.8159,7.8175,7.8224,7.8224,7.8291,7.8306,7.8304,7.836,7.8351,7.8412,7.8406,7.8509,7.8493,7.8501,7.8498,7.8571,7.8565,7.8805,7.8836,7.8617,7.8619,7.8621,0,7.8087,7.8146,7.8173,7.8207,7.8224,7.8278,7.8309,7.8293,7.8327,7.8364,7.8409,7.8462,7.8503,7.8595,7.8599,7.8647,7.8632,7.8713,7.8639,7.8646,7.8636,7.8633,7.864,7.8728,7.8731,7.8733,7.8734,0,7.8271,7.8267,7.8314,7.8362,7.8401,7.8437,7.847,7.8499,7.8486,7.8526,7.8584,7.8617,7.8681,7.8735,7.878,7.8792,7.8762,7.8758,7.8777,7.8786,7.8789,7.879,7.8543,7.8753,7.8751,7.8749,7.8748,7.8748,7.8405,7.8457,7.8485,7.8539,7.8563,7.8595,7.8643,7.8649,7.8698,7.875,7.8737,7.8803,7.883,7.8888,7.8906,7.8957,7.8927,7.8955,7.8962,7.8969,7.8979,7.878,7.8965,7.8964,7.8964,7.8963,7.8963,0,7.8589,7.8605,7.8656,7.8704,7.8748,7.8717,7.8752,7.879,7.8849,7.8877,7.892,7.8988,7.9041,7.905,7.91,7.914,7.9128,7.9154,7.9151,7.9155,7.9002,7.8981,7.9163,7.9163,7.9163,7.9163,7.9163,7.9163,7.8689,7.8775,7.8774,7.8872,7.8887,7.8953,7.8976,7.9006,7.9029,7.9107,7.9151,7.9157,7.9179,7.923,7.9278,7.9279,7.93,7.9332,7.9329,7.9186,7.9166,7.9147,7.9127,7.9337,7.9337,7.9478,7.9479,7.948]}]]